,,,PA_Meas_PMT16A,,PR_Meas_QMR101_102,,RH_Meas_QMH101,,SR_Meas_QMS101,,TA_Meas_QMH101,,GenWind,,GenWind,
date,time,status,PA,status,PR,status,RH,status,SR,status,TA,status,DirAvg,status,SpdAvg,
2014-11-10, 00:00:04,VALID,1010.6,VALID,0,INVALID,134.953,VALID,0,VALID,23.1095,VALID,8,VALID,0,
2014-11-10, 00:01:04,VALID,1010.57,VALID,0,INVALID,134.953,VALID,0,VALID,23.1095,VALID,8,VALID,0,
2014-11-10, 00:02:04,VALID,1010.54,VALID,0,INVALID,134.907,VALID,0,VALID,23.1095,VALID,8,VALID,0,
2014-11-10, 00:03:04,VALID,1010.51,VALID,0,INVALID,134.907,VALID,0,VALID,23.09,VALID,8,VALID,0,
2014-11-10, 00:04:04,VALID,1010.51,VALID,0,INVALID,134.961,VALID,0,VALID,23.09,VALID,8,VALID,0,
2014-11-10, 00:05:04,VALID,1010.49,VALID,0,INVALID,134.9,VALID,0,VALID,23.09,VALID,8,VALID,0,
2014-11-10, 00:06:04,VALID,1010.46,VALID,0,INVALID,134.846,VALID,0,VALID,23.09,VALID,8,VALID,0,
2014-11-10, 00:07:04,VALID,1010.46,VALID,0,INVALID,134.785,VALID,0,VALID,23.09,VALID,8,VALID,0,
2014-11-10, 00:08:04,VALID,1010.45,VALID,0,INVALID,134.747,VALID,0,VALID,23.09,VALID,8,VALID,0,
2014-11-10, 00:09:04,VALID,1010.45,VALID,0,INVALID,134.717,VALID,0,VALID,23.09,VALID,8,VALID,0,
2014-11-10, 00:10:04,VALID,1010.43,VALID,0,INVALID,134.701,VALID,0,VALID,23.09,VALID,8,VALID,0,
2014-11-10, 00:11:04,VALID,1010.44,VALID,0,INVALID,134.747,VALID,0,VALID,23.0705,VALID,8,VALID,0,
2014-11-10, 00:12:04,VALID,1010.41,VALID,0,INVALID,134.717,VALID,0,VALID,23.0705,VALID,8,VALID,0,
2014-11-10, 00:13:04,VALID,1010.41,VALID,0,INVALID,134.656,VALID,0,VALID,23.0705,VALID,8,VALID,0,
2014-11-10, 00:14:04,VALID,1010.41,VALID,0,INVALID,134.572,VALID,0,VALID,23.0705,VALID,8,VALID,0,
2014-11-10, 00:15:04,VALID,1010.41,VALID,0,INVALID,134.518,VALID,0,VALID,23.0511,VALID,8,VALID,0,
2014-11-10, 00:16:04,VALID,1010.41,VALID,0,INVALID,134.518,VALID,0,VALID,23.0511,VALID,8,VALID,0,
2014-11-10, 00:17:04,VALID,1010.39,VALID,0,INVALID,134.503,VALID,0,VALID,23.0511,VALID,8,VALID,0,
2014-11-10, 00:18:04,VALID,1010.39,VALID,0,INVALID,134.434,VALID,0.112112,VALID,23.0298,VALID,8,VALID,0,
2014-11-10, 00:19:04,VALID,1010.4,VALID,0,INVALID,134.396,VALID,0,VALID,23.0511,VALID,8,VALID,0,
2014-11-10, 00:20:04,VALID,1010.37,VALID,0,INVALID,134.351,VALID,0,VALID,23.0316,VALID,8,VALID,0,
2014-11-10, 00:21:04,VALID,1010.37,VALID,0,INVALID,134.29,VALID,0,VALID,23.0316,VALID,8,VALID,0,
2014-11-10, 00:22:04,VALID,1010.39,VALID,0,INVALID,134.251,VALID,0.112112,VALID,23.0316,VALID,8,VALID,0,
2014-11-10, 00:23:04,VALID,1010.38,VALID,0,INVALID,134.168,VALID,0,VALID,23.0316,VALID,8,VALID,0,
2014-11-10, 00:24:04,VALID,1010.34,VALID,0,INVALID,134.129,VALID,0,VALID,23.0316,VALID,8,VALID,0,
2014-11-10, 00:25:04,VALID,1010.32,VALID,0,INVALID,133.954,VALID,0,VALID,23.0511,VALID,8,VALID,0,
2014-11-10, 00:26:04,VALID,1010.32,VALID,0,INVALID,133.916,VALID,0,VALID,23.0511,VALID,8,VALID,0,
2014-11-10, 00:27:04,VALID,1010.29,VALID,0,INVALID,133.809,VALID,0,VALID,23.0723,VALID,8,VALID,0,
2014-11-10, 00:28:04,VALID,1010.27,VALID,0,INVALID,133.718,VALID,0,VALID,23.0511,VALID,8,VALID,0,
2014-11-10, 00:29:04,VALID,1010.24,VALID,0,INVALID,133.573,VALID,0,VALID,23.0705,VALID,8,VALID,0,
2014-11-10, 00:30:04,VALID,1010.25,VALID,0,INVALID,133.451,VALID,0,VALID,23.09,VALID,8,VALID,0,
2014-11-10, 00:31:04,VALID,1010.21,VALID,0,INVALID,133.413,VALID,0,VALID,23.09,VALID,8,VALID,0,
2014-11-10, 00:32:04,VALID,1010.2,VALID,0,INVALID,133.283,VALID,0,VALID,23.0688,VALID,8,VALID,0,
2014-11-10, 00:33:04,VALID,1010.2,VALID,0,INVALID,133.161,VALID,0,VALID,23.1095,VALID,8,VALID,0,
2014-11-10, 00:34:04,VALID,1010.19,VALID,0,INVALID,133.115,VALID,0,VALID,23.1095,VALID,8,VALID,0,
2014-11-10, 00:35:04,VALID,1010.2,VALID,0,INVALID,133.054,VALID,0,VALID,23.1095,VALID,8,VALID,0,
2014-11-10, 00:36:04,VALID,1010.18,VALID,0,INVALID,132.978,VALID,0,VALID,23.129,VALID,8,VALID,0,
2014-11-10, 00:37:04,VALID,1010.19,VALID,0,INVALID,132.925,VALID,0,VALID,23.129,VALID,8,VALID,0,
2014-11-10, 00:38:04,VALID,1010.2,VALID,0,INVALID,132.863,VALID,0,VALID,23.129,VALID,8,VALID,0,
2014-11-10, 00:39:04,VALID,1010.18,VALID,0,INVALID,132.802,VALID,0,VALID,23.1077,VALID,8,VALID,0,
2014-11-10, 00:40:04,VALID,1010.16,VALID,0,INVALID,132.81,VALID,0,VALID,23.129,VALID,8,VALID,0,
2014-11-10, 00:41:04,VALID,1010.16,VALID,0,INVALID,132.764,VALID,0.112112,VALID,23.1077,VALID,8,VALID,0,
2014-11-10, 00:42:04,VALID,1010.16,VALID,0,INVALID,132.734,VALID,0,VALID,23.1077,VALID,8,VALID,0,
2014-11-10, 00:43:04,VALID,1010.16,VALID,0,INVALID,132.658,VALID,0,VALID,23.1485,VALID,9,VALID,0,
2014-11-10, 00:44:04,VALID,1010.12,VALID,0,INVALID,132.551,VALID,0.112112,VALID,23.1485,VALID,9,VALID,0,
2014-11-10, 00:45:04,VALID,1010.12,VALID,0,INVALID,132.429,VALID,0,VALID,23.1679,VALID,9,VALID,0,
2014-11-10, 00:46:04,VALID,1010.12,VALID,0,INVALID,132.444,VALID,0,VALID,23.1485,VALID,9,VALID,0,
2014-11-10, 00:47:04,VALID,1010.11,VALID,0,INVALID,132.452,VALID,0,VALID,23.1485,VALID,9,VALID,0,
2014-11-10, 00:48:04,VALID,1010.12,VALID,0,INVALID,132.406,VALID,0,VALID,23.1679,VALID,9,VALID,0,
2014-11-10, 00:49:04,VALID,1010.11,VALID,0,INVALID,132.414,VALID,0,VALID,23.1679,VALID,9,VALID,0,
2014-11-10, 00:50:04,VALID,1010.09,VALID,0,INVALID,132.452,VALID,0,VALID,23.1679,VALID,9,VALID,0,
2014-11-10, 00:51:04,VALID,1010.07,VALID,0,INVALID,132.444,VALID,0,VALID,23.1467,VALID,9,VALID,0,
2014-11-10, 00:52:04,VALID,1010.07,VALID,0,INVALID,132.429,VALID,0.112112,VALID,23.1874,VALID,9,VALID,0,
2014-11-10, 00:53:04,VALID,1010.04,VALID,0,INVALID,132.475,VALID,0,VALID,23.1467,VALID,9,VALID,0,
2014-11-10, 00:54:04,VALID,1010.02,VALID,0,INVALID,132.566,VALID,0,VALID,23.1679,VALID,9,VALID,0,
2014-11-10, 00:55:04,VALID,1010.03,VALID,0,INVALID,132.597,VALID,0,VALID,23.1485,VALID,9,VALID,0,
2014-11-10, 00:56:04,VALID,1010.02,VALID,0,INVALID,132.589,VALID,0,VALID,23.1485,VALID,9,VALID,0,
2014-11-10, 00:57:04,VALID,1010.01,VALID,0,INVALID,132.604,VALID,0,VALID,23.1485,VALID,9,VALID,0,
2014-11-10, 00:58:04,VALID,1010,VALID,0,INVALID,132.589,VALID,0,VALID,23.1272,VALID,9,VALID,0,
2014-11-10, 00:59:04,VALID,1010,VALID,0,INVALID,132.589,VALID,0.112112,VALID,23.1467,VALID,9,VALID,0,
2014-11-10, 01:00:04,VALID,1009.95,VALID,0,INVALID,132.543,VALID,0.112112,VALID,23.1467,VALID,9,VALID,0,
2014-11-10, 01:01:04,VALID,1009.93,VALID,0,INVALID,132.574,VALID,0,VALID,23.1467,VALID,9,VALID,0,
2014-11-10, 01:02:04,VALID,1009.97,VALID,0,INVALID,132.65,VALID,0,VALID,23.1485,VALID,9,VALID,0,
2014-11-10, 01:03:04,VALID,1009.94,VALID,0,INVALID,132.612,VALID,0.112112,VALID,23.1467,VALID,9,VALID,0,
2014-11-10, 01:04:04,VALID,1009.92,VALID,0,INVALID,132.597,VALID,0,VALID,23.1467,VALID,9,VALID,0,
2014-11-10, 01:05:04,VALID,1009.94,VALID,0,INVALID,132.642,VALID,0,VALID,23.1679,VALID,9,VALID,0,
2014-11-10, 01:06:04,VALID,1009.94,VALID,0,INVALID,132.665,VALID,0,VALID,23.1467,VALID,9,VALID,0,
2014-11-10, 01:07:04,VALID,1009.92,VALID,0,INVALID,132.665,VALID,0.112112,VALID,23.1485,VALID,9,VALID,0,
2014-11-10, 01:08:04,VALID,1009.92,VALID,0,INVALID,132.581,VALID,0,VALID,23.1485,VALID,9,VALID,0,
2014-11-10, 01:09:04,VALID,1009.9,VALID,0,INVALID,132.612,VALID,0,VALID,23.1467,VALID,9,VALID,0,
2014-11-10, 01:10:04,VALID,1009.87,VALID,0,INVALID,132.528,VALID,0.112112,VALID,23.1662,VALID,18,VALID,0,
2014-11-10, 01:11:04,VALID,1009.85,VALID,0,INVALID,132.459,VALID,0.112112,VALID,23.1679,VALID,36,VALID,0,
2014-11-10, 01:12:04,VALID,1009.85,VALID,0,INVALID,132.505,VALID,0.112112,VALID,23.1679,VALID,36,VALID,0,
2014-11-10, 01:13:04,VALID,1009.84,VALID,0,INVALID,132.414,VALID,0,VALID,23.1662,VALID,36,VALID,0,
2014-11-10, 01:14:04,VALID,1009.83,VALID,0,INVALID,132.368,VALID,0.112112,VALID,23.1662,VALID,36,VALID,0,
2014-11-10, 01:15:04,VALID,1009.83,VALID,0,INVALID,132.36,VALID,0.112112,VALID,23.1874,VALID,36,VALID,0,
2014-11-10, 01:16:04,VALID,1009.8,VALID,0,INVALID,132.276,VALID,0.112112,VALID,23.1857,VALID,30,VALID,0,
2014-11-10, 01:17:04,VALID,1009.79,VALID,0,INVALID,132.33,VALID,0.112112,VALID,23.1662,VALID,30,VALID,0,
2014-11-10, 01:18:04,VALID,1009.73,VALID,0,INVALID,132.307,VALID,0,VALID,23.1662,VALID,53,VALID,0,
2014-11-10, 01:19:04,VALID,1009.74,VALID,0,INVALID,132.391,VALID,0,VALID,23.1679,VALID,53,VALID,0,
2014-11-10, 01:20:04,VALID,1009.72,VALID,0,INVALID,132.414,VALID,0.112112,VALID,23.1679,VALID,53,VALID,0,
2014-11-10, 01:21:04,VALID,1009.68,VALID,0,INVALID,132.391,VALID,0,VALID,23.1679,VALID,53,VALID,0,
2014-11-10, 01:22:04,VALID,1009.69,VALID,0,INVALID,132.406,VALID,0.112112,VALID,23.1272,VALID,43,VALID,0,
2014-11-10, 01:23:04,VALID,1009.67,VALID,0,INVALID,132.33,VALID,0.112112,VALID,23.1485,VALID,36,VALID,0,
2014-11-10, 01:24:04,VALID,1009.67,VALID,0,INVALID,132.33,VALID,0,VALID,23.1272,VALID,36,VALID,0,
2014-11-10, 01:25:04,VALID,1009.65,VALID,0,INVALID,132.307,VALID,0.112112,VALID,23.1077,VALID,35,VALID,0,
2014-11-10, 01:26:04,VALID,1009.66,VALID,0,INVALID,132.284,VALID,0.112112,VALID,23.1272,VALID,34,VALID,0,
2014-11-10, 01:27:04,VALID,1009.65,VALID,0,INVALID,132.246,VALID,0.112112,VALID,23.129,VALID,34,VALID,0,
2014-11-10, 01:28:04,VALID,1009.64,VALID,0,INVALID,132.177,VALID,0.112112,VALID,23.129,VALID,34,VALID,0,
2014-11-10, 01:29:04,VALID,1009.63,VALID,0,INVALID,132.177,VALID,0,VALID,23.129,VALID,34,VALID,0,
2014-11-10, 01:30:04,VALID,1009.65,VALID,0,INVALID,132.109,VALID,0,VALID,23.1095,VALID,34,VALID,0,
2014-11-10, 01:31:04,VALID,1009.65,VALID,0,INVALID,132.177,VALID,0,VALID,23.1095,VALID,34,VALID,0,
2014-11-10, 01:32:04,VALID,1009.66,VALID,0,INVALID,132.215,VALID,0,VALID,23.0883,VALID,34,VALID,0,
2014-11-10, 01:33:04,VALID,1009.64,VALID,0,INVALID,132.192,VALID,0,VALID,23.09,VALID,34,VALID,0,
2014-11-10, 01:34:04,VALID,1009.61,VALID,0,INVALID,132.139,VALID,0,VALID,23.09,VALID,34,VALID,0,
2014-11-10, 01:35:04,VALID,1009.61,VALID,0,INVALID,132.116,VALID,0,VALID,23.1095,VALID,34,VALID,0,
2014-11-10, 01:36:04,VALID,1009.62,VALID,0,INVALID,132.116,VALID,0,VALID,23.1095,VALID,34,VALID,0,
2014-11-10, 01:37:04,VALID,1009.59,VALID,0,INVALID,132.101,VALID,0,VALID,23.1095,VALID,39,VALID,0,
2014-11-10, 01:38:04,VALID,1009.61,VALID,0,INVALID,132.025,VALID,0,VALID,23.1095,VALID,39,VALID,0,
2014-11-10, 01:39:04,VALID,1009.6,VALID,0,INVALID,132.063,VALID,0,VALID,23.1095,VALID,39,VALID,0,
2014-11-10, 01:40:04,VALID,1009.59,VALID,0,INVALID,132.124,VALID,0,VALID,23.1095,VALID,39,VALID,0,
2014-11-10, 01:41:04,VALID,1009.55,VALID,0,INVALID,132.124,VALID,0,VALID,23.1095,VALID,39,VALID,0,
2014-11-10, 01:42:04,VALID,1009.55,VALID,0,INVALID,132.086,VALID,0,VALID,23.1095,VALID,39,VALID,0,
2014-11-10, 01:43:04,VALID,1009.54,VALID,0,INVALID,132.109,VALID,0,VALID,23.1095,VALID,39,VALID,0,
2014-11-10, 01:44:04,VALID,1009.55,VALID,0,INVALID,132.185,VALID,0,VALID,23.1095,VALID,39,VALID,0,
2014-11-10, 01:45:04,VALID,1009.52,VALID,0,INVALID,132.208,VALID,0,VALID,23.09,VALID,39,VALID,0,
2014-11-10, 01:46:04,VALID,1009.5,VALID,0,INVALID,132.307,VALID,0,VALID,23.09,VALID,39,VALID,0,
2014-11-10, 01:47:04,VALID,1009.5,VALID,0,INVALID,132.33,VALID,0,VALID,23.0493,VALID,39,VALID,0,
2014-11-10, 01:48:04,VALID,1009.49,VALID,0,INVALID,132.33,VALID,0,VALID,23.0705,VALID,39,VALID,0,
2014-11-10, 01:49:04,VALID,1009.49,VALID,0,INVALID,132.414,VALID,0,VALID,23.0511,VALID,39,VALID,0,
2014-11-10, 01:50:04,VALID,1009.5,VALID,0,INVALID,132.452,VALID,0,VALID,23.0705,VALID,39,VALID,0,
2014-11-10, 01:51:04,VALID,1009.47,VALID,0,INVALID,132.482,VALID,0,VALID,23.0511,VALID,39,VALID,0,
2014-11-10, 01:52:04,VALID,1009.48,VALID,0,INVALID,132.558,VALID,0,VALID,23.0316,VALID,39,VALID,0,
2014-11-10, 01:53:04,VALID,1009.47,VALID,0,INVALID,132.65,VALID,0,VALID,23.0333,VALID,39,VALID,0,
2014-11-10, 01:54:04,VALID,1009.45,VALID,0,INVALID,132.749,VALID,0,VALID,23.0121,VALID,39,VALID,0,
2014-11-10, 01:55:04,VALID,1009.43,VALID,0,INVALID,132.665,VALID,0,VALID,23.0316,VALID,39,VALID,0,
2014-11-10, 01:56:04,VALID,1009.44,VALID,0,INVALID,132.528,VALID,0,VALID,23.0316,VALID,39,VALID,0,
2014-11-10, 01:57:04,VALID,1009.45,VALID,0,INVALID,132.49,VALID,0,VALID,23.0511,VALID,39,VALID,0,
2014-11-10, 01:58:04,VALID,1009.46,VALID,0,INVALID,132.558,VALID,0,VALID,23.0316,VALID,39,VALID,0,
2014-11-10, 01:59:04,VALID,1009.47,VALID,0,INVALID,132.558,VALID,0,VALID,23.0511,VALID,39,VALID,0,
2014-11-10, 02:00:04,VALID,1009.46,VALID,0,INVALID,132.68,VALID,0,VALID,23.0121,VALID,39,VALID,0,
2014-11-10, 02:01:04,VALID,1009.48,VALID,0,INVALID,132.665,VALID,0,VALID,23.0316,VALID,39,VALID,0,
2014-11-10, 02:02:04,VALID,1009.48,VALID,0,INVALID,132.551,VALID,0,VALID,23.0316,VALID,39,VALID,0,
2014-11-10, 02:03:04,VALID,1009.48,VALID,0,INVALID,132.513,VALID,0,VALID,23.0316,VALID,39,VALID,0,
2014-11-10, 02:04:04,VALID,1009.45,VALID,0,INVALID,132.574,VALID,0,VALID,23.0316,VALID,39,VALID,0,
2014-11-10, 02:05:04,VALID,1009.47,VALID,0,INVALID,132.589,VALID,0,VALID,23.0316,VALID,39,VALID,0,
2014-11-10, 02:06:04,VALID,1009.44,VALID,0,INVALID,132.635,VALID,0,VALID,23.0121,VALID,39,VALID,0,
2014-11-10, 02:07:04,VALID,1009.45,VALID,0,INVALID,132.665,VALID,0,VALID,22.9926,VALID,39,VALID,0,
2014-11-10, 02:08:04,VALID,1009.48,VALID,0,INVALID,132.726,VALID,0,VALID,22.9926,VALID,39,VALID,0,
2014-11-10, 02:09:04,VALID,1009.45,VALID,0,INVALID,132.802,VALID,0,VALID,22.9731,VALID,39,VALID,0,
2014-11-10, 02:10:04,VALID,1009.47,VALID,0,INVALID,132.871,VALID,0,VALID,22.9536,VALID,39,VALID,0,
2014-11-10, 02:11:04,VALID,1009.49,VALID,0,INVALID,132.917,VALID,0,VALID,22.9536,VALID,39,VALID,0,
2014-11-10, 02:12:04,VALID,1009.48,VALID,0,INVALID,132.947,VALID,0,VALID,22.9731,VALID,39,VALID,0,
2014-11-10, 02:13:04,VALID,1009.49,VALID,0,INVALID,132.978,VALID,0,VALID,22.9536,VALID,39,VALID,0,
2014-11-10, 02:14:04,VALID,1009.5,VALID,0,INVALID,132.963,VALID,0,VALID,22.9342,VALID,39,VALID,0,
2014-11-10, 02:15:04,VALID,1009.5,VALID,0,INVALID,133.024,VALID,0,VALID,22.9147,VALID,39,VALID,0,
2014-11-10, 02:16:04,VALID,1009.5,VALID,0,INVALID,133.001,VALID,0,VALID,22.9147,VALID,39,VALID,0,
2014-11-10, 02:17:04,VALID,1009.5,VALID,0,INVALID,133.016,VALID,0,VALID,22.9342,VALID,39,VALID,0,
2014-11-10, 02:18:04,VALID,1009.5,VALID,0,INVALID,132.986,VALID,0,VALID,22.9342,VALID,39,VALID,0,
2014-11-10, 02:19:04,VALID,1009.49,VALID,0,INVALID,133.008,VALID,0,VALID,22.9129,VALID,39,VALID,0,
2014-11-10, 02:20:04,VALID,1009.48,VALID,0,INVALID,133.092,VALID,0,VALID,22.8952,VALID,39,VALID,0,
2014-11-10, 02:21:04,VALID,1009.45,VALID,0,INVALID,133.207,VALID,0,VALID,22.8757,VALID,39,VALID,0,
2014-11-10, 02:22:04,VALID,1009.47,VALID,0,INVALID,133.176,VALID,0,VALID,22.874,VALID,39,VALID,0,
2014-11-10, 02:23:04,VALID,1009.46,VALID,0,INVALID,133.161,VALID,0,VALID,22.8757,VALID,39,VALID,0,
2014-11-10, 02:24:04,VALID,1009.47,VALID,0,INVALID,133.199,VALID,0,VALID,22.8757,VALID,39,VALID,0,
2014-11-10, 02:25:04,VALID,1009.49,VALID,0,INVALID,133.237,VALID,0,VALID,22.8562,VALID,39,VALID,0,
2014-11-10, 02:26:04,VALID,1009.46,VALID,0,INVALID,133.184,VALID,0,VALID,22.8545,VALID,39,VALID,0,
2014-11-10, 02:27:04,VALID,1009.46,VALID,0,INVALID,133.176,VALID,0,VALID,22.8562,VALID,39,VALID,0,
2014-11-10, 02:28:04,VALID,1009.47,VALID,0,INVALID,133.207,VALID,0,VALID,22.835,VALID,39,VALID,0,
2014-11-10, 02:29:04,VALID,1009.47,VALID,0,INVALID,133.245,VALID,0,VALID,22.8385,VALID,39,VALID,0,
2014-11-10, 02:30:04,VALID,1009.44,VALID,0,INVALID,133.26,VALID,0,VALID,22.7978,VALID,39,VALID,0,
2014-11-10, 02:31:04,VALID,1009.45,VALID,0,INVALID,133.252,VALID,0,VALID,22.8173,VALID,39,VALID,0,
2014-11-10, 02:32:04,VALID,1009.44,VALID,0,INVALID,133.291,VALID,0,VALID,22.7978,VALID,39,VALID,0,
2014-11-10, 02:33:04,VALID,1009.43,VALID,0,INVALID,133.329,VALID,0,VALID,22.7783,VALID,39,VALID,0,
2014-11-10, 02:34:04,VALID,1009.43,VALID,0,INVALID,133.336,VALID,0,VALID,22.7588,VALID,39,VALID,0,
2014-11-10, 02:35:04,VALID,1009.4,VALID,0,INVALID,133.336,VALID,0,VALID,22.7588,VALID,39,VALID,0,
2014-11-10, 02:36:04,VALID,1009.41,VALID,0,INVALID,133.382,VALID,0,VALID,22.7394,VALID,39,VALID,0,
2014-11-10, 02:37:04,VALID,1009.43,VALID,0,INVALID,133.352,VALID,0,VALID,22.7394,VALID,39,VALID,0,
2014-11-10, 02:38:04,VALID,1009.44,VALID,0,INVALID,133.39,VALID,0,VALID,22.7199,VALID,39,VALID,0,
2014-11-10, 02:39:04,VALID,1009.46,VALID,0,INVALID,133.298,VALID,0,VALID,22.7394,VALID,39,VALID,0,
2014-11-10, 02:40:04,VALID,1009.45,VALID,0,INVALID,133.184,VALID,0,VALID,22.7783,VALID,39,VALID,0,
2014-11-10, 02:41:04,VALID,1009.45,VALID,0,INVALID,133.108,VALID,0,VALID,22.7588,VALID,39,VALID,0,
2014-11-10, 02:42:04,VALID,1009.5,VALID,0,INVALID,133.069,VALID,0,VALID,22.7588,VALID,39,VALID,0,
2014-11-10, 02:43:04,VALID,1009.48,VALID,0,INVALID,133.062,VALID,0,VALID,22.7588,VALID,39,VALID,0,
2014-11-10, 02:44:04,VALID,1009.48,VALID,0,INVALID,133.115,VALID,0,VALID,22.7606,VALID,39,VALID,0,
2014-11-10, 02:45:04,VALID,1009.51,VALID,0,INVALID,133.024,VALID,0,VALID,22.7376,VALID,39,VALID,0,
2014-11-10, 02:46:04,VALID,1009.48,VALID,0,INVALID,133.069,VALID,0,VALID,22.7394,VALID,39,VALID,0,
2014-11-10, 02:47:04,VALID,1009.52,VALID,0,INVALID,132.94,VALID,0,VALID,22.7783,VALID,39,VALID,0,
2014-11-10, 02:48:04,VALID,1009.51,VALID,0,INVALID,132.902,VALID,0,VALID,22.7588,VALID,39,VALID,0,
2014-11-10, 02:49:04,VALID,1009.52,VALID,0,INVALID,132.825,VALID,0,VALID,22.7588,VALID,39,VALID,0,
2014-11-10, 02:50:04,VALID,1009.54,VALID,0,INVALID,132.848,VALID,0,VALID,22.7588,VALID,39,VALID,0,
2014-11-10, 02:51:04,VALID,1009.54,VALID,0,INVALID,132.81,VALID,0,VALID,22.7588,VALID,39,VALID,0,
2014-11-10, 02:52:04,VALID,1009.54,VALID,0,INVALID,132.78,VALID,0,VALID,22.7394,VALID,39,VALID,0,
2014-11-10, 02:53:04,VALID,1009.52,VALID,0,INVALID,132.81,VALID,0,VALID,22.7394,VALID,39,VALID,0,
2014-11-10, 02:54:04,VALID,1009.56,VALID,0,INVALID,132.818,VALID,0,VALID,22.7411,VALID,39,VALID,0,
2014-11-10, 02:55:04,VALID,1009.57,VALID,0,INVALID,132.795,VALID,0,VALID,22.7199,VALID,39,VALID,0,
2014-11-10, 02:56:04,VALID,1009.57,VALID,0,INVALID,132.802,VALID,0,VALID,22.7394,VALID,39,VALID,0,
2014-11-10, 02:57:04,VALID,1009.55,VALID,0,INVALID,132.78,VALID,0,VALID,22.7199,VALID,39,VALID,0,
2014-11-10, 02:58:04,VALID,1009.58,VALID,0,INVALID,132.734,VALID,0,VALID,22.7199,VALID,39,VALID,0,
2014-11-10, 02:59:04,VALID,1009.58,VALID,0,INVALID,132.726,VALID,0,VALID,22.7394,VALID,39,VALID,0,
2014-11-10, 03:00:04,VALID,1009.58,VALID,0,INVALID,132.688,VALID,0,VALID,22.7394,VALID,39,VALID,0,
2014-11-10, 03:01:04,VALID,1009.57,VALID,0,INVALID,132.65,VALID,0,VALID,22.7606,VALID,39,VALID,0,
2014-11-10, 03:02:04,VALID,1009.56,VALID,0,INVALID,132.612,VALID,0,VALID,22.7394,VALID,39,VALID,0,
2014-11-10, 03:03:04,VALID,1009.53,VALID,0,INVALID,132.551,VALID,0,VALID,22.7394,VALID,39,VALID,0,
2014-11-10, 03:04:04,VALID,1009.54,VALID,0,INVALID,132.505,VALID,0,VALID,22.7394,VALID,39,VALID,0,
2014-11-10, 03:05:04,VALID,1009.52,VALID,0,INVALID,132.452,VALID,0,VALID,22.7588,VALID,39,VALID,0,
2014-11-10, 03:06:04,VALID,1009.53,VALID,0,INVALID,132.414,VALID,0,VALID,22.7588,VALID,39,VALID,0,
2014-11-10, 03:07:04,VALID,1009.51,VALID,0,INVALID,132.307,VALID,0,VALID,22.7588,VALID,39,VALID,0,
2014-11-10, 03:08:04,VALID,1009.53,VALID,0,INVALID,132.208,VALID,0,VALID,22.7783,VALID,39,VALID,0,
2014-11-10, 03:09:04,VALID,1009.54,VALID,0,INVALID,132.109,VALID,0,VALID,22.7783,VALID,39,VALID,0,
2014-11-10, 03:10:04,VALID,1009.56,VALID,0,INVALID,132.055,VALID,0,VALID,22.7978,VALID,39,VALID,0,
2014-11-10, 03:11:04,VALID,1009.58,VALID,0,INVALID,131.964,VALID,0,VALID,22.7961,VALID,39,VALID,0,
2014-11-10, 03:12:04,VALID,1009.61,VALID,0,INVALID,131.88,VALID,0,VALID,22.7961,VALID,39,VALID,0,
2014-11-10, 03:13:04,VALID,1009.62,VALID,0,INVALID,131.773,VALID,0,VALID,22.8173,VALID,39,VALID,0,
2014-11-10, 03:14:04,VALID,1009.65,VALID,0,INVALID,131.743,VALID,0,VALID,22.8173,VALID,39,VALID,0,
2014-11-10, 03:15:04,VALID,1009.66,VALID,0,INVALID,131.72,VALID,0,VALID,22.8173,VALID,39,VALID,0,
2014-11-10, 03:16:04,VALID,1009.67,VALID,0,INVALID,131.628,VALID,0,VALID,22.8173,VALID,39,VALID,0,
2014-11-10, 03:17:04,VALID,1009.68,VALID,0,INVALID,131.552,VALID,0.112112,VALID,22.8173,VALID,39,VALID,0,
2014-11-10, 03:18:04,VALID,1009.68,VALID,0,INVALID,131.491,VALID,0,VALID,22.8368,VALID,39,VALID,0,
2014-11-10, 03:19:04,VALID,1009.69,VALID,0,INVALID,131.43,VALID,0,VALID,22.8368,VALID,39,VALID,0,
2014-11-10, 03:20:04,VALID,1009.69,VALID,0,INVALID,131.392,VALID,0,VALID,22.8173,VALID,39,VALID,0,
2014-11-10, 03:21:04,VALID,1009.69,VALID,0,INVALID,131.3,VALID,0,VALID,22.8368,VALID,39,VALID,0,
2014-11-10, 03:22:04,VALID,1009.68,VALID,0,INVALID,131.27,VALID,0,VALID,22.8368,VALID,39,VALID,0,
2014-11-10, 03:23:04,VALID,1009.69,VALID,0,INVALID,131.178,VALID,0,VALID,22.8368,VALID,39,VALID,0,
2014-11-10, 03:24:04,VALID,1009.71,VALID,0,INVALID,131.14,VALID,0,VALID,22.8368,VALID,39,VALID,0,
2014-11-10, 03:25:04,VALID,1009.69,VALID,0,INVALID,131.094,VALID,0,VALID,22.8562,VALID,39,VALID,0,
2014-11-10, 03:26:04,VALID,1009.68,VALID,0,INVALID,131.003,VALID,0,VALID,22.8562,VALID,39,VALID,0,
2014-11-10, 03:27:04,VALID,1009.68,VALID,0,INVALID,130.942,VALID,0,VALID,22.8562,VALID,39,VALID,0,
2014-11-10, 03:28:04,VALID,1009.66,VALID,0,INVALID,130.919,VALID,0,VALID,22.8562,VALID,39,VALID,0,
2014-11-10, 03:29:04,VALID,1009.66,VALID,0,INVALID,130.843,VALID,0,VALID,22.8562,VALID,39,VALID,0,
2014-11-10, 03:30:04,VALID,1009.66,VALID,0,INVALID,130.782,VALID,0,VALID,22.8562,VALID,39,VALID,0,
2014-11-10, 03:31:04,VALID,1009.66,VALID,0,INVALID,130.751,VALID,0,VALID,22.8562,VALID,39,VALID,0,
2014-11-10, 03:32:04,VALID,1009.65,VALID,0,INVALID,130.728,VALID,0,VALID,22.8562,VALID,39,VALID,0,
2014-11-10, 03:33:04,VALID,1009.64,VALID,0,INVALID,130.644,VALID,0,VALID,22.8757,VALID,39,VALID,0,
2014-11-10, 03:34:04,VALID,1009.64,VALID,0,INVALID,130.591,VALID,0,VALID,22.8757,VALID,39,VALID,0,
2014-11-10, 03:35:04,VALID,1009.65,VALID,0,INVALID,130.545,VALID,0.112112,VALID,22.8952,VALID,39,VALID,0,
2014-11-10, 03:36:04,VALID,1009.64,VALID,0,INVALID,130.515,VALID,0,VALID,22.8952,VALID,39,VALID,0,
2014-11-10, 03:37:04,VALID,1009.65,VALID,0,INVALID,130.507,VALID,0,VALID,22.8952,VALID,39,VALID,0,
2014-11-10, 03:38:04,VALID,1009.65,VALID,0,INVALID,130.492,VALID,0,VALID,22.8952,VALID,39,VALID,0,
2014-11-10, 03:39:04,VALID,1009.67,VALID,0,INVALID,130.461,VALID,0,VALID,22.8952,VALID,39,VALID,0,
2014-11-10, 03:40:04,VALID,1009.66,VALID,0,INVALID,130.378,VALID,0,VALID,22.8952,VALID,39,VALID,0,
2014-11-10, 03:41:04,VALID,1009.66,VALID,0,INVALID,130.4,VALID,0,VALID,22.8952,VALID,39,VALID,0,
2014-11-10, 03:42:04,VALID,1009.65,VALID,0,INVALID,130.355,VALID,0,VALID,22.8969,VALID,39,VALID,0,
2014-11-10, 03:43:04,VALID,1009.66,VALID,0,INVALID,130.393,VALID,0,VALID,22.8952,VALID,39,VALID,0,
2014-11-10, 03:44:04,VALID,1009.67,VALID,0,INVALID,130.37,VALID,0,VALID,22.874,VALID,39,VALID,0,
2014-11-10, 03:45:04,VALID,1009.7,VALID,0,INVALID,130.385,VALID,0,VALID,22.8952,VALID,39,VALID,0,
2014-11-10, 03:46:04,VALID,1009.68,VALID,0,INVALID,130.355,VALID,0,VALID,22.874,VALID,39,VALID,0,
2014-11-10, 03:47:04,VALID,1009.71,VALID,0,INVALID,130.393,VALID,0,VALID,22.8952,VALID,39,VALID,0,
2014-11-10, 03:48:04,VALID,1009.68,VALID,0,INVALID,130.378,VALID,0.112112,VALID,22.874,VALID,39,VALID,0,
2014-11-10, 03:49:04,VALID,1009.69,VALID,0,INVALID,130.423,VALID,0,VALID,22.8952,VALID,39,VALID,0,
2014-11-10, 03:50:04,VALID,1009.68,VALID,0,INVALID,130.446,VALID,0,VALID,22.8545,VALID,39,VALID,0,
2014-11-10, 03:51:04,VALID,1009.7,VALID,0,INVALID,130.431,VALID,0,VALID,22.8562,VALID,39,VALID,0,
2014-11-10, 03:52:04,VALID,1009.73,VALID,0,INVALID,130.423,VALID,0,VALID,22.8757,VALID,39,VALID,0,
2014-11-10, 03:53:04,VALID,1009.72,VALID,0,INVALID,130.431,VALID,0,VALID,22.8757,VALID,39,VALID,0,
2014-11-10, 03:54:04,VALID,1009.75,VALID,0,INVALID,130.446,VALID,0.112112,VALID,22.8757,VALID,39,VALID,0,
2014-11-10, 03:55:04,VALID,1009.77,VALID,0,INVALID,130.454,VALID,0,VALID,22.8757,VALID,39,VALID,0,
2014-11-10, 03:56:04,VALID,1009.79,VALID,0,INVALID,130.469,VALID,0,VALID,22.8562,VALID,39,VALID,0,